User: anonymous   Login
Location: Indian Hills
(32.9760°N, 85.9450°W)
Time: 08:09:25
(UTC+00:00)
Language:

Cosmos 2278 Rocket - Orbit

View from above orbital plane
View from above orbital plane
View from above satellite
View from above satellite

Ground track
Ground track

The orbit data is extracted from the following two-line orbital elements,

1 23088U 94023B   20049.69263191 +.00000253 +00000-0 +15593-3 0  9997
2 23088 071.0011 032.4870 0001890 016.7091 343.4093 14.14683408333373
Epoch (UTC): 18 February 2020 16:37:23
Eccentricity: 0.0001890
inclination: 71.0011°
perigee height: 842 km
apogee height: 845 km
right ascension of ascending node: 32.4870°
argument of perigee: 16.7091°
revolutions per day: 14.14683408
mean anomaly at epoch: 343.4093°
orbit number at epoch: 33337

The dashed part of the orbit path shows where the satellite is in the earth's shadow,  

DLR